Powrót do katalogu

JB-3 C

AktywnyMilitariaSSO
NORAD 28470·PAYLOAD·🇨🇳 China

Wystrzelony Nov 6, 2004 z Taiyuan Satellite Launch Center

Loading…

Następne Przeloty (najbliższe 24 godziny)

TLE

ŚwieżeSource: Space-Track

Epoka: Sep 14, 2026, 08:28 UTC

1 28470U 04044A   26257.35318095  .00003032  00000-0  14272-3 0  9996
2 28470  97.2890  47.7926 0031255 268.2781  91.4874 15.19870762201320

Śledź JB-3 C w czasie rzeczywistym z AllMySat

Download on the App Store